Weather in Shklovo

Russia / Saratov Oblast     51°21′44″N   44°30′59″E
temp.,
°C
wind,
m/s
gust,
m/s
humid.,
%
clouds,
%
prec.,
mm/h
press.,
hPa
HPBL,
m
6 may, thu
thu601:00+8sw33705 0.0 101724
04:00+7ssw22730 0.0 101813
07:00+8s35745 0.0 1018118
10:00+14s56525 0.0 1018757
13:00+17ssw5642100 0.0 10171825
16:00+18s5641100 0.0 10162097
19:00+16s4757100 0.0 1015256
22:00+12s41160100 0.0 1016206
7 may, fri
fri701:00+10sse41264100 0.0 1015246
04:00+11sse51357100 0.0 1015304
07:00+11sse61458100 0.0 1014385
10:00+13s61161100 0.0 1014486
13:00+18ssw71150100 0.1 10142023
16:00+14w7870100 1.0 1014576
19:00+11nnw4689100 2.1 1016344
22:00+10n258999 2.2 1017228
8 may, sat
sat801:00+8n22940 0.0 101734
04:00+7nne229543 0.0 101727
07:00+8ne129198 0.0 101794
10:00+14se237427 0.0 1015643
13:00+18ssw5654100 0.0 10141493
16:00+19ssw664134 0.0 10131376
19:00+17ssw3658100 0.0 1013214
22:00+14sse3964100 0.0 1012174
9 may, sun
sun901:00+12sse41077100 0.0 1012190
04:00+12ssw3785100 0.2 1012147
07:00+11nw2497100 2.9 1012224
10:00+12n4691100 3.7 1012393
13:00+10n6894100 1.7 1013463
16:00+8n71091100 3.3 1015457
19:00+8n81490100 1.1 1016552
22:00+7n61291100 1.7 1018593
10 may, mon
mon1001:00+6n81493100 3.3 1018548
04:00+7n81493100 4.8 1018472
07:00+7nne81392100 0.9 1021539
10:00+7nne101691100 1.6 1022567
13:00+10nne101480100 0.0 1023676
16:00+12nne91478100 0.0 1022738
19:00+11ne101779100 0.0 1023677
22:00+9ne91879100 0.0 1025510